| DS18B20 | SHTC3 | ||||||
|---|---|---|---|---|---|---|---|
| ID | Date d/m/Y & Time | data1 สูง | data2 ต่ำ | data3 นอก | temp pcb | hum pcb | Time |
| 2581 | 15/03/2026 03:32:25 | 27.1  | 27.1  | 25.7  | 27.1  | 71.3  | 03:32 |
| 2580 | 15/03/2026 03:27:44 | 27.1  | 27.1  | 25.9  | 26.9  | 71.1  | 03:27 |
| 2579 | 15/03/2026 03:23:02 | 27.1  | 27.1  | 25.9  | 26.9  | 71.2  | 03:23 |
| 2578 | 15/03/2026 03:18:20 | 27.1  | 27.1  | 25.8  | 27.0  | 71.2  | 03:18 |
| 2577 | 15/03/2026 03:13:39 | 27.1  | 27.2  | 25.7  | 27.1  | 71.0  | 03:13 |
| 2576 | 15/03/2026 03:08:57 | 27.1  | 27.2  | 25.7  | 27.1  | 71.2  | 03:08 |
| 2575 | 15/03/2026 03:04:16 | 27.1  | 27.2  | 25.7  | 27.2  | 71.3  | 03:04 |
| 2574 | 15/03/2026 02:59:34 | 27.2  | 27.2  | 25.7  | 27.2  | 71.1  | 02:59 |
| 2573 | 15/03/2026 02:54:52 | 27.2  | 27.2  | 25.9  | 27.2  | 71.2  | 02:54 |
| 2572 | 15/03/2026 02:50:11 | 27.2  | 27.2  | 26.1  | 27.2  | 71.0  | 02:50 |
| 2571 | 15/03/2026 02:45:29 | 27.2  | 27.2  | 26.2  | 27.2  | 71.1  | 02:45 |
| 2570 | 15/03/2026 02:40:47 | 27.2  | 27.3  | 26.2  | 27.2  | 71.1  | 02:40 |
| 2569 | 15/03/2026 02:36:06 | 27.2  | 27.3  | 26.1  | 27.1  | 71.0  | 02:36 |
| 2568 | 15/03/2026 02:31:26 | 27.2  | 27.3  | 26.2  | 27.2  | 71.0  | 02:31 |
| 2567 | 15/03/2026 02:26:44 | 27.3  | 27.3  | 26.3  | 27.4  | 71.0  | 02:26 |
| 2566 | 15/03/2026 02:22:01 | 27.3  | 27.3  | 26.3  | 27.1  | 71.0  | 02:22 |
| 2565 | 15/03/2026 02:17:19 | 27.3  | 27.4  | 26.2  | 27.2  | 71.0  | 02:17 |
| 2564 | 15/03/2026 02:12:37 | 27.3  | 27.4  | 26.2  | 27.2  | 71.0  | 02:12 |
| 2563 | 15/03/2026 02:07:55 | 27.3  | 27.4  | 26.1  | 27.4  | 71.1  | 02:07 |
| 2562 | 15/03/2026 02:03:14 | 27.3  | 27.4  | 26.2  | 27.3  | 71.0  | 02:03 |
| 2561 | 15/03/2026 01:58:33 | 27.3  | 27.4  | 26.3  | 27.3  | 71.1  | 01:58 |
| 2560 | 15/03/2026 01:53:51 | 27.3  | 27.4  | 26.4  | 27.4  | 71.0  | 01:53 |
| 2559 | 15/03/2026 01:49:09 | 27.4  | 27.4  | 26.5  | 27.4  | 71.2  | 01:49 |
| 2558 | 15/03/2026 01:44:26 | 27.4  | 27.4  | 26.5  | 27.3  | 71.2  | 01:44 |